Location: Wildlife_Club
(35.6000°N, 81.4330°W)
Time: 08:59:27
(UTC-04:00)

Iridium 56 - Visible Passes

Search period start: 25 May 2016 00:00
Search period end: 04 June 2016 00:00
Orbit: 776 x 779 km, 86.4° (Epoch: 24 May)

Date Brightness Start Highest point End Pass type
(mag) Time Alt. Az. Time Alt. Az. Time Alt. Az.
27 May 8.6 05:37:56 10° NE 05:40:41 14° ENE 05:43:25 10° ESE visible
30 May 8.3 05:37:02 10° NNE 05:40:57 21° E 05:44:51 10° SE visible
31 May 8.9 05:05:55 10° ENE 05:07:07 11° ENE 05:08:18 10° E visible
02 Jun 7.6 05:36:34 10° NNE 05:41:11 31° E 05:45:45 10° SE visible
03 Jun 8.4 05:04:11 10° NE 05:07:25 16° ENE 05:10:39 10° ESE visible
